TimeCST,TemperatureF,Dew PointF,Humidity,Sea Level PressureIn,VisibilityMPH,Wind Direction,Wind SpeedMPH,Gust SpeedMPH,PrecipitationIn,Events,Conditions,WindDirDegrees,DateUTC
12:53 AM,37.0,32.0,82,29.91,10.0,Calm,Calm,-,N/A,,Clear,0,2013-02-27 06:53:00
1:53 AM,33.1,30.0,89,29.92,10.0,WSW,3.5,-,N/A,,Clear,250,2013-02-27 07:53:00
2:53 AM,34.0,30.9,89,29.92,10.0,Calm,Calm,-,N/A,,Clear,0,2013-02-27 08:53:00
3:53 AM,32.0,30.0,92,29.91,10.0,WSW,3.5,-,N/A,,Clear,240,2013-02-27 09:53:00
4:53 AM,32.0,28.9,88,29.93,8.0,West,3.5,-,N/A,,Clear,270,2013-02-27 10:53:00
5:53 AM,32.0,30.0,92,29.93,9.0,Calm,Calm,-,N/A,,Clear,0,2013-02-27 11:53:00
6:53 AM,30.0,28.0,92,29.95,4.0,West,4.6,-,N/A,,Clear,260,2013-02-27 12:53:00
7:53 AM,37.0,33.1,86,29.99,10.0,West,4.6,-,N/A,,Clear,270,2013-02-27 13:53:00
8:53 AM,42.1,33.1,70,30.00,10.0,WNW,6.9,-,N/A,,Clear,300,2013-02-27 14:53:00
9:53 AM,45.0,33.1,63,30.02,10.0,WNW,8.1,-,N/A,,Partly Cloudy,290,2013-02-27 15:53:00
10:53 AM,48.0,34.0,58,30.03,10.0,WNW,10.4,-,N/A,,Clear,290,2013-02-27 16:53:00
11:53 AM,51.1,34.0,52,29.99,10.0,WSW,10.4,-,0.00,,Mostly Cloudy,250,2013-02-27 17:53:00
12:53 PM,54.0,34.0,47,29.97,10.0,West,13.8,20.7,N/A,,Clear,280,2013-02-27 18:53:00
1:53 PM,55.9,35.1,45,29.95,10.0,West,12.7,19.6,N/A,,Partly Cloudy,280,2013-02-27 19:53:00
2:53 PM,55.9,33.1,42,29.96,10.0,West,16.1,23.0,0.00,,Mostly Cloudy,270,2013-02-27 20:53:00
3:53 PM,57.9,33.1,39,29.96,10.0,West,13.8,20.7,N/A,,Mostly Cloudy,280,2013-02-27 21:53:00
4:53 PM,55.0,30.0,38,29.98,10.0,WNW,10.4,20.7,N/A,,Mostly Cloudy,290,2013-02-27 22:53:00
5:53 PM,52.0,33.1,49,29.99,10.0,NW,5.8,-,N/A,,Scattered Clouds,310,2013-02-27 23:53:00
6:53 PM,50.0,30.9,48,30.01,10.0,NW,5.8,-,N/A,,Clear,310,2013-02-28 00:53:00
7:53 PM,46.9,30.9,54,30.04,10.0,NW,5.8,-,N/A,,Clear,310,2013-02-28 01:53:00
8:53 PM,45.0,30.9,58,30.04,10.0,WNW,4.6,-,N/A,,Clear,290,2013-02-28 02:53:00
9:53 PM,43.0,30.9,62,30.05,10.0,Calm,Calm,-,N/A,,Clear,0,2013-02-28 03:53:00
10:53 PM,37.0,30.9,79,30.05,10.0,Calm,Calm,-,N/A,,Clear,0,2013-02-28 04:53:00
11:53 PM,37.9,30.9,76,30.06,10.0,West,3.5,-,N/A,,Clear,270,2013-02-28 05:53:00